Flag for Italy Weather past 2 weeks in Cagliari, Italy

Now
77 °F

Scattered clouds.


Feels Like: 79 °F
Forecast: 72 / 87 °F
Wind: 18 mph from Northwest

Location: Cagliari / Elmas

Current Time: Jul 23, 2014 at 12:15:01 AM

Latest Report: Jul 22, 2014 at 6:50 PM


Visibility: N/A

Pressure: 29.83 "Hg

Humidity: 61%

Dew point: 63 °F

Location of CagliariLocation

Historic Weather in Cagliari — Graph

°F

Cagliari temperature yesterday

Maximum temperature yesterday: 81 °F (at 10:20 AM)
Minimum temperature yesterday: 73 °F (at 12:20 AM)
Average temperature yesterday: 77 °F

Past Weeks' High & Low Weather Summary

 TemperatureHumidityPressure
High90 °F (Jul 15, 1:50 PM)100% (Jul 16, 3:20 AM)30.07 "Hg (Jul 16, 3:20 AM)
Low64 °F (Jul 9, 4:50 AM)31% (Jul 15, 1:50 PM)29.83 "Hg (Jul 22, 3:50 PM)
Average76 °F63%29.97 "Hg
* Reported Jul 7 6:20 PM — Jul 22 6:50 PM, Cagliari, Weather by CustomWeather, © 2014

Note: Actual official high and low records may vary slightly from our data, if they occured in-between our weather recording intervals... More about our weather records

Advertising

Cagliari weather history for previous 24 hours

 ConditionsComfort  
Time TempWeatherWind HumidityBarometerVisibility
6:50 PM
Jul 22
77 °FScattered clouds.18 mph61%29.83 "HgN/A
6:20 PM79 °FScattered clouds.20 mph54%29.83 "HgN/A
5:50 PM79 °FScattered clouds.20 mph54%29.83 "HgN/A
5:20 PM79 °FScattered clouds.18 mph54%29.83 "HgN/A
4:50 PM79 °FPartly sunny.16 mph58%29.83 "HgN/A
4:20 PM79 °FPartly sunny.18 mph58%29.86 "HgN/A
3:50 PM79 °FPartly sunny.21 mph61%29.83 "HgN/A
3:20 PM79 °FPartly sunny.20 mph61%29.86 "HgN/A
2:50 PM79 °FPartly sunny.18 mph58%29.86 "HgN/A
2:20 PM81 °FPartly sunny.21 mph51%29.86 "HgN/A
1:50 PM81 °FPartly sunny.17 mph51%29.86 "HgN/A
1:20 PM81 °FPartly sunny.18 mph54%29.86 "HgN/A
12:50 PM81 °FPartly sunny.18 mph54%29.86 "HgN/A
12:20 PM81 °FPartly sunny.18 mph51%29.86 "HgN/A
11:50 AM79 °FPartly sunny.20 mph54%29.86 "HgN/A
11:20 AM79 °FPartly sunny.18 mph54%29.86 "HgN/A
10:50 AM79 °FPartly sunny.18 mph54%29.86 "HgN/A
10:20 AM81 °FPartly sunny.20 mph51%29.86 "HgN/A
9:50 AM79 °FPartly sunny.18 mph54%29.86 "HgN/A
9:20 AM79 °FScattered clouds.23 mph54%29.86 "HgN/A
8:50 AM77 °FPartly sunny.18 mph57%29.86 "HgN/A
8:20 AM75 °FPartly sunny.16 mph61%29.86 "HgN/A
7:50 AM75 °FPartly sunny.13 mph65%29.86 "HgN/A
7:20 AM75 °FScattered clouds.14 mph65%29.86 "HgN/A
6:50 AM73 °FPassing clouds.16 mph69%29.86 "HgN/A
6:20 AM73 °FPassing clouds.16 mph69%29.86 "HgN/A
5:50 AM75 °FPassing clouds.15 mph65%29.86 "HgN/A
5:20 AM75 °FClear.16 mph65%29.86 "Hg10 mi
4:50 AM75 °FClear.15 mph65%29.86 "Hg10 mi
4:20 AM75 °FPassing clouds.14 mph65%29.86 "HgN/A
3:50 AM75 °FPassing clouds.13 mph65%29.89 "HgN/A
3:20 AM75 °FPassing clouds.14 mph65%29.89 "HgN/A
2:50 AM73 °FPassing clouds.10 mph69%29.89 "HgN/A
2:20 AM73 °FPassing clouds.12 mph69%29.92 "HgN/A
1:50 AM73 °FPassing clouds.13 mph69%29.92 "HgN/A
1:20 AM73 °FPassing clouds.9 mph69%29.92 "HgN/A
12:50 AM73 °FPassing clouds.13 mph69%29.95 "HgN/A
12:20 AM73 °FPassing clouds.10 mph69%29.95 "HgN/A
Weather by CustomWeather, © 2014

See weather overviewHow to use our weather pages